Location: Saluda
(35.2377°N, 82.3468°W)
Time: 05:52:10
(UTC+00:00)

Vanguard 2 - Pass Details

Date: 08 October 2022
Orbit: 553 x 2933 km, 32.9° (Epoch: 26 November)

Event Time Altitude Azimuth Distance (km) Brightness Sun altitude
Rises 00:26:56 0° 279° (W) 6,356 14.0 -17.6°
Reaches altitude 10° 00:32:02 10° 268° (W) 5,563 13.1 -18.6°
Maximum altitude 00:44:40 26° 222° (SW) 4,558 11.7 -21.2°
Drops below altitude 10° 00:57:10 10° 174° (S) 5,430 11.7 -23.7°
Sets 01:02:10 0° 162° (SSE) 6,173 11.9 -24.7°
